OpenBCM V2.0.3 (Linux)

Packet Radio Mailbox

IZ3LSV

[San Dona' di P. JN]

 Login: GUEST





  
LU1HVK > KEP      12.09.19 07:27l 250 Lines 12366 Bytes #999 (0) @ WW
BID : 31633_LU1HVK
Read: GUEST
Subj: TLE 12 09
Path: IZ3LSV<I0OJJ<I3XTY<GB7COW<GB7YEW<N3HYM<LU3DVN<LU9HGS<LU1HVK
Sent: 190912/0522Z 31633@LU1HVK.2594.CBA.ARG.SA LinBPQ6.0.18

>From lu1hvk%lu1hvk.2594.cba.arg.sa@i0ojj.ampr.org Thu Sep 12 07:26:13 2019
Received: from i0ojj.ampr.org by i0ojj.ampr.org (JNOS2.0k.3b2) with SMTP
	id AA26660 ; Thu, 12 Sep 2019 07:26:13 +0200
Message-Id: <31633_LU1HVK@i3xty.bbs>
>From: lu1hvk@lu1hvk.2594.cba.arg.sa
X-JNOS-User-Port: Telnet   (i3xty @ 44.134.32.240)  -> Sending message

                         _    _   _ _ _   ___     ___  __
                        | |  | | | / | | | \ \   / / |/ /
                        | |  | | | | | |_| |\ \ / /| ' /
                        | |__| |_| | |  _  | \ V / | . \
                        |_____\___/|_|_| |_|  \_/  |_|\_\

     BBS/NODO - CORDOBA (LEONES-FF87UH) - LU1HVK-4 NODO - LU1HVK-3 APRS

+----------------------------------------------------------------------------+
OSCAR 7
1  7530U 74089B   19254.85239903 -.00000028  00000-0  10645-3 0  9993
2  7530 101.7531 221.6682 0011986 181.0991 232.5536 12.53639859 51199
OSCAR 11 (UoSAT 2)
1 14781U 84021B   19254.84473110  .00000065  00000-0  14092-4 0  9996
2 14781  97.6076 275.5179 0009561  47.4754 312.7266 14.83105171911386
OSCAR 19 (LUSAT)
1 20442U 90005G   19254.85803156  .00000000  00000-0  16390-4 0  9996
2 20442  98.6532 196.7362 0010607 257.8522 102.1473 14.32932402548573
EYESAT A
1 22825U 93061C   19254.85912104  .00000002  00000-0  18562-4 0  9997
2 22825  98.9097 245.4644 0009447 108.5530 251.6679 14.30066067354122
ITAMSAT
1 22826U 93061D   19254.77099490  .00000001  00000-0  18355-4 0  9992
2 22826  98.9038 245.3550 0010018  98.7839 261.4477 14.30400006354312
RADIO ROSTO
1 23439U 94085A   19254.83629074 -.00000047  00000-0 -13645-3 0  9992
2 23439  64.8196 338.4360 0145572  96.7098 265.0416 11.27568254 17651
JAS 2
1 24278U 96046B   19254.88200300 -.00000056  00000-0 -20867-4 0  9990
2 24278  98.5501  36.7753 0350688  19.3176 342.0883 13.53092932139324
TECHSAT 1B
1 25397U 98043D   19254.79988493 -.00000026  00000-0  78685-5 0  9996
2 25397  98.6927 193.9304 0002044 120.5590 239.5790 14.23670226 99983
ISS (ZARYA)
1 25544U 98067A   19255.10367755  .00000546  00000-0  17394-4 0  9999
2 25544  51.6447 290.1651 0008234  31.1324  12.0212 15.50444067188746
PCSAT
1 26931U 01043C   19254.86581479 -.00000044  00000-0  14759-4 0  9997
2 26931  67.0511 143.8905 0007461 271.9010  88.1237 14.30551734937158
SAUDISAT 1C
1 27607U 02058C   19254.87466274 -.00000044  00000-0  14776-4 0  9990
2 27607  64.5549 149.1598 0077356 240.0636 119.2769 14.75570227899600
CUTE-1
1 27844U 03031E   19254.42952603  .00000042  00000-0  38487-4 0  9994
2 27844  98.6853 261.3787 0010537 140.6722 219.5223 14.22193560840333
CUBESAT XI 4
1 27848U 03031J   19254.79768885  .00000035  00000-0  35881-4 0  9992
2 27848  98.6928 262.2594 0010252 150.6607 209.5148 14.21786925840239
MOZHAYETS 4
1 27939U 03042A   19254.84160592  .00000046  00000-0  16788-4 0  9999
2 27939  98.0515  29.0545 0013467 153.0342 207.1569 14.66801211853022
CUBESAT XI 5
1 28895U 05043F   19253.86709712 +.00000087 +00000-0 +25548-4 0  9997
2 28895 097.9710 033.7691 0018194 086.7556 273.5728 14.63688711739565
CUTE-1.7+APD II
1 32785U 08021C   19254.86745556 +.00000165 +00000-0 +23373-4 0  9997
2 32785 097.5538 250.5811 0012701 347.6200 012.4704 14.88341794616289
DELFI C3
1 32789U 08021G   19254.67374356  .00001180  00000-0  82519-4 0  9991
2 32789  97.4576 301.7473 0012090 187.0392 173.0668 15.07099507619769
SEEDS
1 32791U 08021J   19254.87652087 +.00000289 +00000-0 +34677-4 0  9997
2 32791 097.5305 256.6443 0012250 319.8245 040.2068 14.90865199616729
YUBELEINY
1 32953U 08025A   19254.71599736  .00000020  00000-0  75656-4 0  9990
2 32953  82.4986  91.8897 0018980 306.2849  53.6472 12.43091096512876
PRISM (HITOMI)
1 33493U 09002B   19254.76911911 -.00000190  00000-0 -11004-4 0  9991
2 33493  98.1202 178.9490 0013712 262.6262  97.3400 14.96725533577876
KKS-1 (KISEKI)
1 33499U 09002H   19254.78446725  .00000058  00000-0  16584-4 0  9994
2 33499  98.3451  96.1869 0008063 300.3898  59.6512 14.75460611571777
SWISSCUBE
1 35932U 09051B   19253.90104036 +.00000110 +00000-0 +35866-4 0  9994
2 35932 098.5962 062.3791 0006436 266.8144 093.2316 14.56307265528997
BEESAT
1 35933U 09051C   19254.44856670  .00000075  00000-0  27887-4 0  9997
2 35933  98.5983  64.7382 0004663 281.2349  78.8324 14.56393598529220
ITUPSAT 1
1 35935U 09051E   19254.00524336 +.00000057 +00000-0 +24253-4 0  9996
2 35935 098.6092 064.5127 0006961 279.1673 080.8735 14.55550290528870
XIWANG-1 (HOPE-1)
1 36122U 09072B   19254.70894769 -.00000057  00000-0 -39148-4 0  9996
2 36122 100.0761 253.1010 0007805 146.4965 213.6644 13.16350804468069
TISAT 1
1 36799U 10035E   19253.89834439 +.00000292 +00000-0 +35503-4 0  9994
2 36799 098.1665 048.8983 0012652 163.9476 196.2144 14.91150305497111
JUGNU
1 37839U 11058B   19254.15886340 +.00000302 +00000-0 +19209-4 0  9991
2 37839 019.9603 182.5556 0019029 177.8326 316.2973 14.12658037409109
SRMSAT
1 37841U 11058D   19254.02932194 +.00000314 +00000-0 +27362-4 0  9991
2 37841 019.9711 241.8637 0011964 044.0627 003.5443 14.10638492408524
M-CUBED/EXP-1 PRIME
1 37855U 11061F   19254.80062211  .00000472  00000-0  31706-4 0  9992
2 37855 101.7108 194.0836 0173041 184.4202 175.5490 15.05568928429584
HORYU 2
1 38340U 12025D   19254.12663324  .00000128  00000-0  26694-4 0  9998
2 38340  98.3227 295.2211 0010878 209.3033 150.7566 14.75745980393619
STRAND 1
1 39090U 13009E   19254.01041528 +.00000008 +00000-0 +18109-4 0  9997
2 39090 098.4813 098.5265 0010028 043.6572 316.5405 14.35095925342465
SOMP
1 39134U 13015E   19254.87963420  .00000631  00000-0  38004-4 0  9999
2 39134  64.8621 104.4166 0035638 289.4742  70.2537 15.20305067353545
BEESAT 3
1 39135U 13015F   19254.88749055  .00000512  00000-0  35057-4 0  9990
2 39135  64.8683 123.8973 0032569 300.9333  58.8592 15.17588756353176
BEESAT 2
1 39136U 13015G   19254.89100005  .00000656  00000-0  42878-4 0  9996
2 39136  64.8684 127.9511 0024299 304.5028  55.3803 15.17006860353092
CUBEBUG 1
1 39153U 13018D   19254.17338603  .00000123  00000-0  23007-4 0  9998
2 39153  97.9806 351.8339 0015558 285.9781  73.9717 14.80591802344315
ZACUBE
1 39417U 13066B   19254.82766549  .00000156  00000-0  25813-4 0  9993
2 39417  97.5628 263.5456 0060383 114.2601 246.4937 14.81144928313643
TRITON 1
1 39427U 13066M   19254.86942959  .00000146  00000-0  31561-4 0  9995
2 39427  97.6853 227.0243 0112306 252.6160 106.2739 14.67876003310835
GOMX 1
1 39430U 13066Q   19254.78509760  .00000195  00000-0  44439-4 0  9991
2 39430  97.7530 205.7641 0151252 346.4792  13.2381 14.59281859309011
HUMSAT D
1 39433U 13066T   19254.10450281  .00000125  00000-0  17508-4 0  9993
2 39433  97.5466 298.1287 0031216  21.9772 338.2778 14.92243773315660
CUBEBUG 2
1 39440U 13066AA  19253.95645453 +.00000136 +00000-0 +25824-4 0  9992
2 39440 097.6069 247.4382 0080411 170.1545 190.1264 14.75882265311204
FUNCUBE 1
1 39444U 13066AE  19253.97085656 +.00000196 +00000-0 +30259-4 0  9995
2 39444 097.5603 264.7632 0059554 110.6546 250.1067 14.81969584311828
UWE-3
1 39446U 13066AG  19254.22243384  .00000155  00000-0  27097-4 0  9991
2 39446  97.5840 254.7991 0070932 143.1933 217.4180 14.78417310311759
SPROUT
1 39770U 14029E   19254.86748528  .00000643  00000-0  77196-4 0  9998
2 39770  97.8870 357.6257 0009107 158.8312 201.3333 14.87415053287490
UNISAT 6
1 40012U 14033C   19254.87050821  .00000131  00000-0  26938-4 0  9997
2 40012  97.7458 117.7648 0058124 181.6404 178.4624 14.74004041281230
DUCHIFAT 1
1 40021U 14033M   19254.79417066  .00000303  00000-0  36741-4 0  9990
2 40021  97.9226 179.6683 0013975 125.1148 235.1382 14.90676153284225
QB50P1
1 40025U 14033R   19254.84550024  .00000197  00000-0  26878-4 0  9993
2 40025  97.9030 174.3845 0013360 134.3083 225.9232 14.88978253283999
CHUBUSAT 1
1 40300U 14070C   19254.80254069  .00000425  00000-0  21412-4 0  9999
2 40300  97.3209 326.8110 0020979 114.1777  23.8839 15.22160644268960
NUDT-PHONESAT
1 40900U 15049B   19254.80558046 +.00001695 +00000-0 +74977-4 0  9998
2 40900 097.4378 263.3143 0011237 243.9847 241.7898 15.23016244220614
ZDPS 2A
1 40901U 15049C   19254.92186075 +.00000672 +00000-0 +36533-4 0  9991
2 40901 097.4612 259.5206 0011897 267.6487 182.7736 15.17821599220163
ZDPS 2B
1 40902U 15049D   19254.83051017 +.00000807 +00000-0 +43391-4 0  9999
2 40902 097.4566 256.8600 0011835 264.4111 216.9341 15.17668769220127
XW-2A
1 40903U 15049E   19254.73532807  .00001669  00000-0  41004-4 0  9996
2 40903  97.3310 297.9548 0012941 190.9572 308.1535 15.42069104223357
KAITUO 1A
1 40904U 15049F   19254.78791872  .00000449  00000-0  27265-4 0  9999
2 40904  97.4697 255.3506 0013146 274.8406 209.4222 15.15423969219887
OBJECT G
1 40905U 15049G   19254.79638979  .00000538  00000-0  32879-4 0  9995
2 40905  97.4745 252.8224 0014122 268.7814 214.8752 15.14339442219756
XW-2C
1 40906U 15049H   19254.88889942  .00000269  00000-0  17556-4 0  9990
2 40906  97.4705 255.5680 0013182 264.8455 141.2823 15.15742203219905
XW-2D
1 40907U 15049J   19254.80410015  .00000753  00000-0  42718-4 0  9990
2 40907  97.4689 255.1650 0012630 261.7896 222.1481 15.15938934219909
LILACSAT 2
1 40908U 15049K   19254.80266497 +.00000562 +00000-0 +34670-4 0  9990
2 40908 097.4820 253.9038 0014311 269.3295 214.3598 15.13845564219689
XW-2F
1 40910U 15049M   19254.81680848  .00000905  00000-0  48573-4 0  9992
2 40910  97.4649 257.3003 0013057 253.1573 230.4909 15.17406527219925
XW-2B
1 40911U 15049N   19254.89301569  .00000310  00000-0  19668-4 0  9994
2 40911  97.4707 255.9160 0012513 262.1595 147.0495 15.15864397219811
KAITUO 1B
1 40912U 15049P   19254.84934120  .00000785  00000-0  39877-4 0  9995
2 40912  97.4510 261.1056 0013542 232.5222 248.4637 15.19730242220246
